PBO Station Position Time Series. Reference Frame : NAM14
Format Version,1.1.1
4-character ID,P690
Station name,MSH_SRidgeWA2005
Begin Date, 2005-02-02
End Date, 2022-12-03
Release Date, 2023-06-01
Reference position, 46.1799887462 North Latitude, -122.1898698509 East Longitude, 2078.90194 meters elevation,
Date, North (mm), East (mm), Vertical (mm), North Std. Deviation (mm), East Std. Deviation (mm),              Vertical Std. Deviation (mm), Quality,
2005-02-02,0.00, 0.00, 0.00, 2.18, 1.57, 6.99, repro,
2005-02-03,0.92, -0.45, -1.87, 2.35, 1.69, 7.49, repro,
2005-02-04,-3.91, 0.08, 3.36, 2.25, 1.61, 7.16, repro,
2005-02-05,-13.16, 1.63, 21.44, 2.23, 1.62, 7.12, repro,
2005-02-06,-14.02, 2.84, 22.23, 2.17, 1.55, 6.92, repro,
2005-02-07,-13.54, 2.06, 21.30, 2.19, 1.55, 6.95, repro,
2005-02-08,-3.81, 0.05, 2.49, 2.26, 1.60, 7.24, repro,
2005-02-09,-0.52, -1.87, 5.66, 2.29, 1.62, 7.24, repro,
2005-02-10,0.21, -1.64, 3.46, 2.19, 1.55, 6.97, repro,
2005-02-11,1.96, -2.01, 6.28, 2.19, 1.56, 6.96, repro,
2005-02-12,-0.85, -0.73, 10.29, 2.18, 1.55, 6.95, repro,
2005-02-13,-3.14, -0.21, 7.68, 2.19, 1.55, 6.96, repro,
2005-02-14,-6.63, -0.07, 8.99, 2.18, 1.55, 6.93, repro,
2005-02-15,-3.67, -1.37, 5.59, 2.17, 1.54, 6.93, repro,
2005-02-16,0.89, -2.42, -1.69, 2.26, 1.60, 7.20, repro,
2005-02-17,0.66, -1.45, 4.87, 2.31, 1.62, 7.16, repro,
2005-02-18,0.13, -1.91, 6.85, 2.30, 1.63, 7.31, repro,
2005-02-19,1.38, -1.61, 4.05, 2.21, 1.57, 7.02, repro,
2005-02-20,1.02, -2.65, 4.05, 2.20, 1.55, 6.99, repro,
2005-02-21,0.52, -1.72, 6.66, 2.36, 1.72, 7.52, repro,
2005-02-22,-0.14, -1.59, 4.49, 2.26, 1.62, 7.15, repro,
2005-02-23,0.77, -1.89, 5.14, 2.29, 1.57, 7.16, repro,
2005-02-24,1.18, -0.88, 6.03, 2.28, 1.57, 7.13, repro,
2005-02-25,1.17, -0.57, 7.20, 2.27, 1.57, 7.10, repro,
2005-02-26,0.86, -1.71, 6.20, 2.26, 1.57, 7.16, repro,
2005-02-27,1.69, -1.94, 7.39, 2.25, 1.56, 7.07, repro,
2005-02-28,1.37, -2.07, 7.02, 2.28, 1.57, 7.12, repro,
2005-03-01,-3.58, 2.32, 6.27, 2.28, 1.57, 7.10, repro,
2005-03-02,-2.20, 2.10, 5.29, 2.31, 1.61, 7.20, repro,
2005-03-03,-0.98, 1.58, 6.15, 2.26, 1.57, 7.08, repro,
2005-03-04,-0.23, -0.87, 6.33, 2.25, 1.56, 7.05, repro,
2005-03-05,1.48, -0.59, 5.76, 2.29, 1.57, 7.12, repro,
2005-03-06,2.69, 0.78, -0.51, 2.33, 1.62, 7.29, repro,
2005-03-07,1.71, 0.96, 2.21, 2.39, 1.65, 7.44, repro,
2005-03-08,2.28, 0.67, 1.81, 2.32, 1.63, 7.26, repro,
2005-03-09,0.89, 0.14, 6.31, 2.35, 1.68, 7.41, repro,
2005-03-10,1.20, 0.31, 8.54, 2.26, 1.56, 7.04, repro,
2005-03-11,1.03, 0.16, 12.80, 2.26, 1.57, 7.07, repro,
2005-03-12,0.27, 0.49, 6.82, 2.27, 1.57, 7.07, repro,
2005-03-13,0.65, 1.11, 1.13, 2.24, 1.57, 7.02, repro,
2005-03-14,-0.01, -0.43, 3.41, 2.25, 1.56, 7.02, repro,
2005-03-15,-2.02, -0.66, 7.18, 2.33, 1.64, 7.39, repro,
2005-03-16,1.29, -0.24, 8.39, 2.28, 1.59, 7.17, repro,
2005-03-17,-1.45, -0.07, 6.40, 2.27, 1.57, 7.08, repro,
2005-03-18,1.62, -0.85, 4.80, 2.28, 1.57, 7.12, repro,
2005-03-19,-0.56, -0.15, 11.57, 2.27, 1.58, 7.13, repro,
2005-03-20,-2.55, 1.48, 23.94, 2.26, 1.55, 7.02, repro,
2005-03-21,-7.10, -1.62, 30.70, 2.26, 1.57, 7.07, repro,
2005-03-22,-8.75, -3.16, 25.82, 2.26, 1.57, 7.09, repro,
2005-03-23,-8.47, -1.13, 22.37, 2.28, 1.57, 7.09, repro,
2005-03-24,-9.04, -2.57, 17.59, 2.26, 1.58, 7.13, repro,
2005-03-25,-7.67, -4.01, 14.28, 2.27, 1.57, 7.06, repro,
2005-03-26,-7.73, -2.92, 9.12, 2.29, 1.57, 7.12, repro,
2005-03-27,-17.75, -2.40, 19.54, 2.29, 1.58, 7.10, repro,
2005-03-28,-22.79, -3.37, 39.71, 2.29, 1.57, 7.11, repro,
2005-03-29,-19.20, -4.68, 27.24, 2.35, 1.64, 7.35, repro,
2005-03-30,-18.66, -0.34, 23.98, 2.26, 1.58, 7.06, repro,
2005-03-31,-15.54, 0.40, 17.57, 2.32, 1.60, 7.24, repro,
2005-04-01,-17.25, -2.16, 18.40, 2.28, 1.57, 7.09, repro,
2005-04-02,-15.75, -1.58, 31.29, 2.28, 1.57, 7.11, repro,
2005-04-03,-11.80, -4.42, 33.24, 2.33, 1.58, 7.35, repro,
2005-04-04,-14.74, -5.25, 38.19, 2.34, 1.60, 7.47, repro,
2005-04-05,-11.84, -3.94, 38.68, 2.26, 1.58, 7.18, repro,
2005-04-06,-12.37, -0.85, 26.04, 2.30, 1.59, 7.22, repro,
2005-04-07,-17.50, -6.13, 22.11, 2.29, 1.58, 7.23, repro,
2005-04-08,-18.83, -8.36, 13.08, 2.34, 1.59, 7.33, repro,
2005-04-09,-15.23, -7.67, 1.82, 2.35, 1.59, 7.43, repro,
2005-04-10,-13.28, -6.64, 1.88, 2.32, 1.59, 7.30, repro,
2005-04-11,-16.23, -5.06, 4.37, 2.31, 1.58, 7.27, repro,
2005-04-12,-16.68, -6.54, -1.34, 2.31, 1.58, 7.24, repro,
2005-04-13,-17.95, -6.24, 0.68, 2.34, 1.58, 7.32, repro,
2005-04-14,-17.60, -7.07, -6.63, 2.46, 1.64, 7.43, repro,
2005-04-15,-18.42, -7.03, -8.00, 2.37, 1.60, 7.29, repro,
2005-04-16,-19.37, -6.08, 4.65, 2.29, 1.61, 7.24, repro,
2005-04-17,-19.32, -7.22, 9.12, 2.26, 1.57, 7.06, repro,
2005-04-18,-18.93, -9.21, 7.16, 2.29, 1.58, 7.13, repro,
2005-04-19,-19.54, -10.47, 3.86, 2.29, 1.57, 7.08, repro,
2005-04-20,-8.26, -6.41, -1.59, 2.34, 1.58, 7.27, repro,
2005-04-21,-4.35, -3.24, -0.11, 2.32, 1.59, 7.32, repro,
2005-04-22,-0.86, -4.36, 7.49, 2.24, 1.56, 6.97, repro,
2005-04-23,0.76, -2.78, 7.70, 2.31, 1.62, 7.22, repro,
2005-04-24,0.47, -0.98, 4.44, 2.37, 1.63, 7.44, repro,
2005-04-25,1.19, -1.87, 2.82, 2.32, 1.58, 7.29, repro,
2005-04-26,1.12, -2.11, 2.63, 2.33, 1.59, 7.32, repro,
2005-04-27,2.24, -1.59, 1.67, 2.31, 1.62, 7.31, repro,
2005-04-28,1.67, -0.92, 3.32, 2.38, 1.67, 7.48, repro,
2005-04-29,-1.67, 1.67, 4.74, 2.31, 1.61, 7.19, repro,
2005-04-30,-6.18, 2.83, -0.47, 2.30, 1.57, 7.09, repro,
2005-05-01,0.19, -1.88, 5.62, 2.35, 1.58, 7.36, repro,
2005-05-02,2.12, -1.60, 1.28, 2.26, 1.55, 7.03, repro,
2005-05-03,1.38, -0.30, 0.19, 2.27, 1.61, 7.25, repro,
2005-05-04,0.84, 1.51, 5.67, 2.26, 1.56, 7.01, repro,
2005-05-05,1.04, -0.64, 6.34, 2.27, 1.56, 7.04, repro,
2005-05-06,3.08, 0.09, 3.75, 2.28, 1.56, 7.07, repro,
2005-05-07,2.09, 0.27, 4.06, 2.27, 1.57, 7.12, repro,
2005-05-08,3.28, -0.34, 4.38, 2.31, 1.62, 7.33, repro,
2005-05-09,4.46, -1.47, 0.19, 2.39, 1.66, 7.46, repro,
2005-05-10,-0.61, 1.05, 7.67, 2.47, 1.77, 7.87, repro,
2005-05-11,1.31, -0.23, 5.79, 2.44, 1.71, 7.61, repro,
2005-05-12,2.88, -0.46, -1.39, 2.43, 1.73, 7.77, repro,
2005-05-13,2.26, -0.03, 2.94, 2.42, 1.69, 7.62, repro,
2005-05-14,3.70, 1.40, -1.56, 2.34, 1.66, 7.47, repro,
2005-05-15,2.35, 0.87, 6.52, 2.42, 1.71, 7.70, repro,
2005-05-16,2.09, 0.74, 9.48, 2.28, 1.61, 7.18, repro,
2005-05-17,2.53, -0.46, 5.87, 2.39, 1.64, 7.33, repro,
2005-05-18,1.36, 0.08, 9.19, 2.46, 1.67, 7.51, repro,
2005-05-19,-2.47, 2.63, 2.08, 2.30, 1.62, 7.26, repro,
2005-05-20,-5.00, 0.05, 6.18, 2.29, 1.61, 7.23, repro,
2005-05-21,-2.67, -1.24, -4.80, 2.27, 1.61, 7.14, repro,
2005-05-22,-0.44, -0.13, 3.40, 2.28, 1.61, 7.16, repro,
2005-05-23,-1.07, -2.90, 3.73, 2.30, 1.62, 7.26, repro,
2005-05-24,-0.14, -2.90, -6.85, 2.34, 1.62, 7.37, repro,
2005-05-25,2.40, -2.30, -4.45, 2.38, 1.68, 7.52, repro,
2005-05-26,4.00, -1.92, -3.17, 2.31, 1.66, 7.43, repro,
2005-05-27,4.93, -1.63, 0.73, 2.28, 1.62, 7.25, repro,
2005-05-28,2.22, -2.34, 5.78, 2.32, 1.67, 7.35, repro,
2005-05-29,4.06, -1.94, 6.21, 2.46, 1.77, 8.10, repro,
2005-05-30,4.71, -1.54, 2.11, 2.30, 1.61, 7.27, repro,
2005-05-31,4.39, 0.26, -0.37, 2.29, 1.61, 7.24, repro,
2005-06-01,-3.18, 1.28, 7.48, 2.25, 1.56, 6.99, repro,
2005-06-02,5.65, -2.09, -1.18, 2.32, 1.60, 7.25, repro,
2005-06-03,6.19, 0.38, 2.95, 2.28, 1.56, 7.06, repro,
2005-06-04,4.44, 0.00, 4.11, 2.29, 1.56, 7.07, repro,
2005-06-05,4.31, 0.20, 2.67, 2.34, 1.61, 7.32, repro,
2005-06-06,2.33, -0.54, 2.47, 2.27, 1.56, 7.03, repro,
2005-06-07,3.81, -1.57, 7.98, 2.34, 1.64, 7.38, repro,
2005-06-08,4.11, -1.29, 5.26, 2.30, 1.62, 7.20, repro,
2005-06-09,4.54, -1.34, 7.29, 2.31, 1.58, 7.21, repro,
2005-06-10,4.23, -0.55, 2.16, 2.35, 1.61, 7.31, repro,
2005-06-11,4.16, -0.31, 4.14, 2.44, 1.74, 7.88, repro,
2005-06-12,3.24, -0.11, -1.40, 2.35, 1.63, 7.32, repro,
2005-06-13,3.05, 0.97, 3.78, 2.46, 1.72, 7.66, repro,
2005-06-14,4.14, 0.33, -4.30, 2.33, 1.61, 7.22, repro,
2005-06-15,4.61, -1.02, 2.09, 2.36, 1.66, 7.36, repro,
2005-06-16,4.80, -1.81, 4.66, 2.36, 1.59, 7.22, repro,
2005-06-17,1.92, -0.08, 7.38, 2.63, 1.78, 8.15, repro,
2005-06-18,2.76, -1.08, 3.69, 2.27, 1.58, 7.12, repro,
2005-06-19,3.90, -1.15, 3.54, 2.28, 1.58, 7.16, repro,
2005-06-20,4.30, -1.72, 3.98, 2.33, 1.61, 7.29, repro,
2005-06-21,3.66, -2.19, 2.85, 2.28, 1.58, 7.14, repro,
2005-06-22,4.42, -1.79, -7.55, 2.42, 1.74, 7.77, repro,
2005-06-23,4.93, -1.19, 0.10, 2.28, 1.57, 7.06, repro,
2005-06-24,5.01, -1.25, 1.01, 2.27, 1.56, 7.10, repro,
2005-06-25,5.88, -0.06, 2.58, 2.31, 1.58, 7.22, repro,
2005-06-26,3.94, 0.09, 2.71, 3.04, 2.14, 9.92, repro,
2005-06-27,3.26, -1.46, 3.78, 2.33, 1.61, 7.29, repro,
2005-06-28,4.82, -2.66, -2.82, 2.26, 1.56, 7.01, repro,
2005-06-29,2.58, -1.16, -2.73, 2.63, 1.85, 8.47, repro,
2005-06-30,4.31, -0.56, 3.68, 2.23, 1.56, 7.00, repro,
2005-07-01,7.65, -1.19, -0.64, 2.27, 1.56, 7.06, repro,
2005-07-02,3.60, -0.16, 4.50, 2.28, 1.56, 7.04, repro,
2005-07-03,3.26, -2.12, 6.89, 2.26, 1.57, 7.03, repro,
2005-07-04,3.35, -1.91, 4.54, 2.25, 1.56, 6.97, repro,
2005-07-05,3.30, -0.96, -0.26, 2.24, 1.56, 6.98, repro,
2005-07-06,2.95, 1.44, 0.37, 2.26, 1.57, 7.07, repro,
2005-07-07,3.24, -2.78, 4.53, 2.34, 1.59, 7.16, repro,
2005-07-08,2.92, 0.18, 2.45, 2.26, 1.57, 7.02, repro,
2005-07-09,2.93, 0.11, 8.08, 2.37, 1.66, 7.33, repro,
2005-07-10,5.11, 0.57, 4.14, 2.37, 1.66, 7.33, repro,
2005-07-11,3.74, -0.08, 8.12, 2.25, 1.57, 7.03, repro,
2005-07-12,2.94, -0.76, 7.04, 2.27, 1.57, 7.06, repro,
2005-07-13,6.04, 0.00, 0.54, 2.27, 1.57, 7.05, repro,
2005-07-14,4.25, -0.53, 3.86, 2.27, 1.61, 7.14, repro,
2005-07-15,4.42, -0.44, 6.07, 2.25, 1.56, 6.98, repro,
2005-07-16,5.60, 0.19, 9.13, 2.25, 1.56, 7.02, repro,
2005-07-17,6.04, -0.07, 2.69, 2.28, 1.58, 7.13, repro,
2005-07-18,5.07, -2.75, 8.56, 2.28, 1.57, 7.12, repro,
2005-07-19,5.40, -0.22, 7.42, 2.26, 1.57, 7.04, repro,
2005-07-20,5.54, -1.58, 4.65, 2.25, 1.57, 7.01, repro,
2005-07-21,4.80, -0.72, 4.58, 2.25, 1.56, 6.98, repro,
2005-07-22,4.83, 0.26, 7.69, 2.27, 1.58, 7.10, repro,
2005-07-23,4.52, -1.35, 9.39, 2.28, 1.57, 7.13, repro,
2005-07-24,4.42, -0.88, 4.62, 2.28, 1.60, 7.20, repro,
2005-07-25,5.72, -1.61, 7.90, 2.29, 1.60, 7.22, repro,
2005-07-26,3.51, -1.56, 7.17, 2.30, 1.65, 7.39, repro,
2005-07-27,4.66, -0.49, 7.33, 2.33, 1.67, 7.36, repro,
2005-07-28,4.54, -0.48, 10.12, 2.36, 1.67, 7.48, repro,
2005-07-29,3.09, -2.35, 10.20, 2.31, 1.61, 7.30, repro,
2005-07-30,3.96, -0.30, 10.56, 2.28, 1.59, 7.21, repro,
2005-07-31,4.87, 0.30, 5.01, 2.29, 1.60, 7.24, repro,
2005-08-01,4.63, 0.02, 5.69, 2.27, 1.60, 7.17, repro,
2005-08-02,5.07, 0.65, 3.94, 2.28, 1.60, 7.18, repro,
2005-08-03,4.94, -1.21, 4.19, 2.27, 1.57, 7.09, repro,
2005-08-04,5.24, -0.82, 9.40, 2.27, 1.57, 7.08, repro,
2005-08-05,4.29, -0.59, 7.58, 2.27, 1.58, 7.11, repro,
2005-08-06,3.49, -2.16, 13.88, 2.26, 1.57, 7.03, repro,
2005-08-07,4.90, -0.35, 4.04, 2.25, 1.57, 7.01, repro,
2005-08-08,3.60, 0.00, 11.00, 2.26, 1.57, 7.02, repro,
2005-08-09,2.69, -3.46, 16.54, 2.29, 1.59, 7.17, repro,
2005-08-10,4.95, 0.01, 4.85, 2.34, 1.62, 7.36, repro,
2005-08-11,4.63, 0.40, 5.55, 2.36, 1.69, 7.47, repro,
2005-08-12,2.99, -0.83, 11.34, 2.37, 1.69, 7.42, repro,
2005-08-13,5.38, -0.68, 4.93, 2.24, 1.57, 7.00, repro,
2005-08-14,4.92, 1.04, 11.55, 2.36, 1.68, 7.37, repro,
2005-08-15,3.08, -1.47, 15.40, 2.35, 1.63, 7.32, repro,
2005-08-16,4.26, -0.91, 8.74, 2.33, 1.62, 7.23, repro,
2005-08-17,5.04, -0.85, 6.09, 4.95, 3.08, 13.97, repro,
2005-08-18,5.35, -0.83, 12.78, 2.25, 1.57, 7.03, repro,
2005-08-19,5.20, -0.60, 13.22, 2.24, 1.57, 7.04, repro,
2005-08-20,3.98, -0.46, 16.37, 2.41, 1.62, 7.27, repro,
2005-08-21,5.04, 0.24, 12.62, 2.27, 1.57, 7.11, repro,
2005-08-22,5.87, 0.43, 12.25, 2.27, 1.57, 7.09, repro,
2005-08-23,6.02, -0.41, 12.75, 2.26, 1.56, 7.06, repro,
2005-08-24,4.22, -0.96, 7.95, 2.25, 1.57, 7.06, repro,
2005-08-25,5.53, -0.81, 12.86, 2.28, 1.60, 7.17, repro,
2005-08-26,5.15, 0.15, 13.73, 2.28, 1.57, 7.15, repro,
2005-08-27,5.81, 0.10, 10.72, 2.33, 1.64, 7.33, repro,
2005-08-28,4.76, 0.34, 11.06, 2.26, 1.56, 7.09, repro,
2005-08-29,4.12, 0.99, 9.63, 2.30, 1.62, 7.20, repro,
2005-08-30,5.11, 0.99, 8.67, 2.32, 1.63, 7.51, repro,
2005-08-31,4.06, -0.53, 18.81, 2.36, 1.64, 7.36, repro,
2005-09-01,5.75, -0.64, 13.42, 2.27, 1.57, 7.14, repro,
2005-09-02,5.57, -0.06, 10.26, 2.25, 1.57, 7.10, repro,
2005-09-03,5.29, 0.01, 10.09, 2.25, 1.56, 7.03, repro,
2005-09-04,5.07, -1.61, 14.81, 2.29, 1.61, 7.16, repro,
2005-09-05,6.85, -0.67, 5.51, 2.29, 1.61, 7.19, repro,
2005-09-06,4.52, -1.03, 11.15, 2.33, 1.62, 7.27, repro,
2005-09-07,4.64, -0.79, 12.34, 2.42, 1.64, 7.39, repro,
2005-09-08,4.86, -1.47, 14.51, 2.32, 1.58, 7.17, repro,
2005-09-09,4.83, 1.19, 14.28, 2.30, 1.58, 7.05, repro,
2005-09-10,2.91, -0.74, 9.25, 2.48, 1.69, 7.57, repro,
2005-09-11,6.33, -0.41, 11.45, 2.35, 1.58, 7.19, repro,
2005-09-12,7.52, -2.32, 8.86, 2.34, 1.57, 7.18, repro,
2005-09-13,5.82, -0.65, 14.93, 2.44, 1.68, 7.52, repro,
2005-09-14,7.54, -0.66, 10.32, 2.34, 1.62, 7.23, repro,
2005-09-15,6.29, -0.22, 10.00, 2.35, 1.63, 7.26, repro,
2005-09-16,5.96, -1.24, 12.79, 2.36, 1.62, 7.29, repro,
2005-09-17,6.58, -0.83, 8.55, 2.26, 1.56, 7.10, repro,
2005-09-18,4.94, -1.16, 18.72, 4.01, 2.52, 11.49, repro,
2005-09-19,6.70, -1.32, 10.91, 2.29, 1.58, 7.22, repro,
2005-09-20,5.33, -0.81, 11.03, 2.23, 1.56, 6.99, repro,
2005-09-21,6.08, -2.65, 10.44, 3.50, 2.31, 10.43, repro,
2005-09-22,5.97, -1.34, 9.90, 2.29, 1.57, 7.22, repro,
2005-09-23,3.58, -1.61, 11.57, 2.75, 1.88, 8.33, repro,
2005-09-24,6.60, -1.33, 16.75, 2.94, 1.99, 8.96, repro,
2005-09-25,6.51, -0.48, 13.08, 2.27, 1.60, 7.17, repro,
2005-09-26,3.86, 0.92, 10.51, 7.35, 5.20, 21.08, repro,
2005-09-27,5.77, -1.19, 12.18, 2.30, 1.61, 7.24, repro,
2005-09-28,6.16, -0.42, 16.71, 2.35, 1.58, 7.21, repro,
2005-09-29,4.22, 1.19, 27.58, 4.31, 2.85, 12.39, repro,
2005-09-30,17.85, -47.23, -36.96, 135.76, 117.28, 347.21, repro,
2005-10-01,4.33, 1.78, 5.73, 5.85, 3.97, 16.57, repro,
2005-10-02,4.26, -0.44, 10.08, 2.30, 1.61, 7.22, repro,
2005-10-03,4.24, -1.01, 8.21, 2.32, 1.61, 7.25, repro,
2005-10-04,4.59, -2.72, 4.19, 2.34, 1.59, 7.27, repro,
2005-10-05,6.36, -1.04, 5.35, 2.30, 1.59, 7.22, repro,
2005-10-06,4.04, -0.92, 13.18, 2.25, 1.56, 7.03, repro,
2005-10-07,5.47, 0.34, 11.62, 2.27, 1.57, 7.08, repro,
2005-10-08,4.56, -0.45, 14.41, 2.26, 1.56, 7.05, repro,
2005-10-09,4.17, 1.07, 11.29, 2.27, 1.57, 7.09, repro,
2005-10-10,5.23, 0.18, 7.93, 2.25, 1.57, 7.03, repro,
2005-10-11,5.79, -0.43, 9.92, 2.27, 1.61, 7.16, repro,
2005-10-12,5.73, 0.58, 8.89, 2.31, 1.60, 7.20, repro,
2005-10-13,6.19, 0.55, 12.10, 2.30, 1.60, 7.27, repro,
2005-10-14,6.21, -1.02, 12.86, 2.27, 1.57, 7.08, repro,
2005-10-15,2.82, 2.14, 18.09, 2.30, 1.63, 7.17, repro,
2005-10-16,3.97, 8.11, 3.28, 5.69, 3.58, 17.83, repro,
2005-10-17,5.79, 3.29, 11.34, 2.26, 1.57, 7.07, repro,
2005-10-18,6.32, -0.05, 14.69, 2.46, 1.72, 7.71, repro,
2005-10-19,4.78, 0.48, 12.32, 2.32, 1.62, 7.29, repro,
2005-10-20,6.12, 2.58, 10.34, 2.36, 1.60, 7.20, repro,
2005-10-21,6.72, -0.36, 9.29, 2.34, 1.65, 7.44, repro,
2005-10-22,5.69, -1.01, 10.38, 2.24, 1.56, 7.02, repro,
2005-10-23,5.68, -0.72, 14.12, 2.32, 1.61, 7.26, repro,
2005-10-24,6.30, -1.27, 10.72, 2.37, 1.67, 7.45, repro,
2005-10-25,4.75, -1.00, 17.88, 2.36, 1.67, 7.40, repro,
2005-10-26,5.81, 1.00, 10.65, 2.37, 1.68, 7.48, repro,
2005-10-27,6.18, -1.13, 11.34, 2.37, 1.71, 7.63, repro,
2005-10-28,5.04, 0.66, 13.57, 2.25, 1.56, 7.03, repro,
2005-10-29,3.25, 1.08, 18.17, 2.30, 1.61, 7.29, repro,
2005-10-30,1.32, 0.86, 14.01, 2.34, 1.67, 7.42, repro,
2005-10-31,-5.14, 10.06, 25.65, 2.38, 1.67, 7.43, repro,
2005-11-01,4.22, 3.64, 16.21, 2.41, 1.71, 7.67, repro,
2005-11-02,4.43, 2.31, 9.69, 2.39, 1.72, 7.63, repro,
2005-11-03,1.28, -0.34, 26.40, 2.37, 1.67, 7.44, repro,
2005-11-04,-2.19, -0.29, 37.73, 2.42, 1.71, 7.66, repro,
2005-11-05,-2.47, -0.11, 32.28, 2.37, 1.67, 7.44, repro,
2005-11-06,2.52, 6.97, 40.66, 2.37, 1.69, 7.48, repro,
2005-11-07,0.79, 7.77, 46.16, 2.38, 1.71, 7.52, repro,
2005-11-08,7.07, 7.92, 30.96, 2.49, 1.75, 7.74, repro,
2005-11-09,0.08, 6.29, 19.84, 2.59, 1.83, 8.11, repro,
2005-11-10,5.63, 0.41, 5.46, 2.68, 1.87, 8.25, repro,
2005-11-11,-3.16, 0.05, 26.52, 2.48, 1.75, 7.91, repro,
2005-11-12,-7.04, 4.50, 29.18, 2.25, 1.63, 7.13, repro,
2005-11-13,-10.22, 3.97, 36.47, 2.39, 1.69, 7.57, repro,
2005-11-14,-19.54, 6.97, 33.70, 2.31, 1.63, 7.23, repro,
2005-11-15,-17.97, 6.70, 24.77, 2.30, 1.58, 7.24, repro,
2005-11-16,6.89, -0.08, -6.17, 2.35, 1.65, 7.47, repro,
2005-11-17,5.55, 0.23, -3.14, 2.24, 1.57, 7.11, repro,
2005-11-18,6.19, -0.12, -4.81, 2.25, 1.57, 7.12, repro,
2005-11-19,6.85, 0.63, -0.94, 2.39, 1.73, 7.74, repro,
2005-11-20,6.63, 1.46, 1.30, 2.40, 1.71, 7.71, repro,
2005-11-21,7.21, -0.22, 3.18, 2.65, 1.84, 8.45, repro,
2005-11-22,6.76, 0.28, 0.54, 2.35, 1.68, 7.51, repro,
2005-11-23,5.64, -0.32, 7.45, 2.31, 1.65, 7.42, repro,
2005-11-24,6.26, 0.31, 6.89, 2.29, 1.61, 7.21, repro,
2005-11-25,7.76, 0.39, 12.51, 2.29, 1.59, 7.22, repro,
2005-11-26,4.22, -0.59, 20.79, 2.45, 1.71, 7.84, repro,
2005-11-27,6.02, -0.03, 10.56, 2.27, 1.59, 7.16, repro,
2005-11-28,6.45, -2.13, 7.22, 2.34, 1.66, 7.55, repro,
2005-11-29,7.71, -4.75, 15.02, 2.32, 1.62, 7.31, repro,
2005-11-30,6.48, -2.48, 12.22, 2.32, 1.63, 7.32, repro,
2005-12-01,6.89, -4.51, 13.93, 2.29, 1.59, 7.20, repro,
2005-12-02,6.07, -3.43, 21.12, 2.29, 1.58, 7.16, repro,
2005-12-03,2.71, -2.44, 21.91, 2.26, 1.58, 7.12, repro,
2005-12-04,2.03, -2.47, 14.27, 2.25, 1.57, 7.10, repro,
2005-12-05,1.63, -2.64, 7.17, 2.27, 1.59, 7.14, repro,
2005-12-06,0.82, -2.92, -0.83, 2.27, 1.58, 7.14, repro,
2005-12-07,3.73, -2.57, -4.40, 2.31, 1.62, 7.30, repro,
2005-12-08,4.52, -2.31, -1.88, 2.32, 1.61, 7.30, repro,
2005-12-09,6.93, -1.86, -5.24, 2.26, 1.58, 7.14, repro,
2005-12-10,4.21, -1.99, 3.17, 2.32, 1.63, 7.36, repro,
2005-12-11,5.45, -1.25, 1.45, 2.28, 1.59, 7.18, repro,
2005-12-12,5.14, -2.03, 2.08, 2.30, 1.59, 7.21, repro,
2005-12-13,4.34, -2.22, -1.76, 2.24, 1.54, 7.02, repro,
2005-12-14,6.16, -2.55, -6.63, 2.46, 1.72, 8.04, repro,
2005-12-15,6.53, -2.35, -5.80, 2.38, 1.66, 7.54, repro,
2005-12-16,5.50, -2.21, 3.44, 2.38, 1.63, 7.39, repro,
2005-12-17,5.85, -2.65, 1.11, 2.33, 1.64, 7.29, repro,
2005-12-18,5.02, -4.40, 0.79, 2.28, 1.62, 7.26, repro,
2005-12-19,3.30, -1.79, 16.77, 2.38, 1.71, 7.48, repro,
2005-12-20,3.70, -1.07, -2.96, 2.37, 1.73, 7.56, repro,
2005-12-21,4.66, 0.57, 8.91, 2.32, 1.68, 7.35, repro,
2005-12-22,-0.55, 1.87, 13.15, 2.33, 1.68, 7.38, repro,
2005-12-23,-11.56, 9.36, 25.92, 2.39, 1.69, 7.49, repro,
2005-12-24,4.97, -1.28, -4.63, 2.42, 1.73, 7.68, repro,
2005-12-25,2.19, 1.13, 0.18, 2.38, 1.67, 7.40, repro,
2005-12-26,-0.06, 8.01, 22.77, 2.28, 1.60, 7.08, repro,
2005-12-27,-1.80, 5.66, 20.11, 2.39, 1.68, 7.50, repro,
2005-12-28,4.65, 8.36, 18.05, 2.28, 1.60, 7.11, repro,
2005-12-29,9.79, 13.53, 43.98, 2.43, 1.81, 7.91, repro,
2005-12-30,5.68, 11.35, 50.93, 2.44, 1.75, 7.79, repro,
2005-12-31,3.58, 7.69, 50.24, 2.51, 1.76, 7.88, repro,
2006-01-01,4.06, 6.68, 30.03, 2.35, 1.67, 7.40, repro,
2006-01-02,2.58, 12.86, 48.11, 2.34, 1.64, 7.28, repro,
2006-01-03,0.32, 13.09, 34.21, 2.49, 1.87, 8.02, repro,
2006-01-04,-3.05, 13.00, 44.15, 2.43, 1.80, 7.70, repro,
2006-01-05,-3.93, 13.66, 40.49, 2.43, 1.74, 7.79, repro,
2006-01-06,-7.59, 11.44, 28.09, 2.42, 1.73, 7.63, repro,
2006-01-07,-4.39, 12.79, 68.21, 2.38, 1.70, 7.50, repro,
2006-01-08,-5.90, 8.60, 65.88, 2.44, 1.75, 7.77, repro,
2006-01-09,-4.82, 5.60, 53.60, 2.40, 1.76, 7.76, repro,
2006-01-10,-9.12, -2.28, 57.48, 2.43, 1.77, 7.86, repro,
2006-01-11,-8.65, 1.08, 83.15, 2.39, 1.71, 7.64, repro,
2006-01-12,-9.45, -0.60, 69.33, 2.41, 1.68, 7.54, repro,
2006-01-13,-10.64, 0.34, 73.58, 2.47, 1.73, 7.90, repro,
2006-01-14,-9.56, 3.13, 77.25, 2.41, 1.68, 7.61, repro,
2006-01-15,-13.96, 0.45, 80.54, 2.40, 1.67, 7.58, repro,
2006-01-16,-14.80, 2.56, 73.61, 2.38, 1.68, 7.54, repro,
2006-01-17,-14.65, 0.77, 80.44, 2.43, 1.72, 7.67, repro,
2006-01-18,-13.43, 0.20, 86.47, 2.40, 1.66, 7.66, repro,
2006-01-19,-15.88, -0.88, 82.16, 2.45, 1.68, 7.75, repro,
2006-01-20,-14.80, -1.88, 82.82, 2.42, 1.69, 7.67, repro,
2006-01-21,-15.24, -4.12, 88.67, 2.38, 1.65, 7.51, repro,
2006-01-22,-14.65, -4.39, 79.58, 2.36, 1.64, 7.39, repro,
2006-01-23,23.55, 1.52, 68.79, 2.88, 2.02, 9.25, repro,
2006-01-24,-1.47, -11.53, 22.67, 2.46, 1.74, 7.92, repro,
2006-01-25,-12.71, -19.79, 17.97, 2.46, 1.69, 7.76, repro,
2006-01-26,-13.35, -17.26, 20.51, 2.38, 1.75, 7.72, repro,
2006-01-27,-11.17, -15.46, 45.24, 2.33, 1.65, 7.38, repro,
2006-01-28,-9.25, -14.41, 52.95, 2.27, 1.60, 7.22, repro,
2006-01-29,-7.34, -15.09, 49.72, 2.27, 1.60, 7.22, repro,
2006-01-30,-8.33, -14.94, 55.64, 2.27, 1.60, 7.22, repro,
2006-01-31,-15.02, -8.64, 68.84, 2.27, 1.66, 7.37, repro,
2006-02-01,-23.18, -11.31, 70.89, 2.29, 1.70, 7.45, repro,
2006-02-02,-23.38, -12.25, 59.94, 2.40, 1.83, 8.00, repro,
2006-02-03,-20.58, -12.93, 61.94, 2.31, 1.66, 7.41, repro,
2006-02-04,-21.57, -11.97, 53.98, 2.31, 1.61, 7.37, repro,
2006-02-05,-23.67, -15.80, 49.54, 2.29, 1.62, 7.32, repro,
2006-02-06,-21.94, -19.71, 40.80, 2.29, 1.63, 7.42, repro,
2006-02-07,-17.28, -28.93, 53.47, 2.37, 1.64, 7.60, repro,
2006-02-08,-11.20, -37.39, 20.57, 2.28, 1.59, 7.22, repro,
2006-02-09,-34.88, -40.90, 8.01, 2.34, 1.59, 7.24, repro,
2006-02-10,-51.58, -49.59, -18.86, 2.37, 1.56, 7.10, repro,
2006-02-11,-31.81, -33.50, -30.42, 2.24, 1.51, 6.97, repro,
2006-02-12,-6.30, -14.34, -23.33, 2.23, 1.52, 7.00, repro,
2006-02-13,-8.20, -13.00, -20.55, 2.22, 1.52, 7.02, repro,
2006-02-14,-8.21, -13.15, -11.32, 2.23, 1.53, 7.00, repro,
2006-02-15,-7.44, -13.79, -13.57, 2.26, 1.53, 7.09, repro,
2006-02-16,-7.38, -13.23, -13.50, 2.25, 1.52, 7.03, repro,
2006-02-17,-6.88, -14.06, -15.10, 2.26, 1.54, 7.05, repro,
2006-02-18,-7.65, -14.47, -15.53, 2.29, 1.58, 7.20, repro,
2006-02-19,-4.97, -14.26, -12.08, 2.24, 1.53, 7.03, repro,
2006-02-20,-6.38, -12.69, -11.02, 2.26, 1.54, 7.08, repro,
2006-02-21,-20.34, -16.03, 4.26, 2.24, 1.53, 6.98, repro,
2006-02-22,-12.74, -11.81, -6.04, 2.24, 1.52, 6.95, repro,
2006-02-23,-8.30, -12.32, -6.62, 2.22, 1.52, 6.96, repro,
2006-02-24,-7.18, -12.16, -9.90, 2.27, 1.56, 7.13, repro,
2006-02-25,-5.48, -12.43, -13.31, 2.28, 1.58, 7.17, repro,
2006-02-26,-5.49, -13.02, -10.81, 2.24, 1.53, 7.02, repro,
2006-02-27,-12.95, -5.68, 18.93, 2.33, 1.60, 7.33, repro,
2006-02-28,-17.40, -4.17, 48.60, 2.41, 1.64, 7.56, repro,
2006-03-01,-6.58, -1.81, 27.63, 2.44, 1.70, 7.80, repro,
2006-03-02,-6.18, -6.04, 26.55, 2.33, 1.63, 7.44, repro,
2006-03-03,-9.32, -5.00, 31.64, 2.45, 1.63, 7.69, repro,
2006-03-04,-10.12, -7.85, 40.06, 2.34, 1.63, 7.48, repro,
2006-03-05,-12.44, -5.81, 42.45, 2.33, 1.66, 7.46, repro,
2006-03-06,-6.26, -2.04, 27.62, 2.67, 1.95, 8.93, repro,
2006-03-07,-7.31, -3.37, 30.50, 2.34, 1.63, 7.47, repro,
2006-03-08,-6.29, -1.65, 26.39, 2.42, 1.67, 7.71, repro,
2006-03-09,-5.49, -12.89, -4.38, 2.41, 1.76, 7.75, repro,
2006-03-10,-4.27, -13.49, -2.55, 2.23, 1.54, 6.98, repro,
2006-03-11,-3.98, -10.75, -5.50, 2.26, 1.54, 7.03, repro,
2006-03-12,-8.70, -10.68, -5.29, 2.26, 1.55, 7.05, repro,
2006-03-13,-6.29, -10.90, -10.94, 2.26, 1.55, 7.13, repro,
2006-03-14,-4.89, -10.24, -8.79, 2.33, 1.61, 7.37, repro,
2006-03-15,-6.10, -6.21, 1.64, 2.26, 1.56, 7.10, repro,
2006-03-16,-8.61, -5.54, 12.92, 2.35, 1.60, 7.37, repro,
2006-03-17,-10.18, -3.14, 14.15, 2.41, 1.65, 7.65, repro,
2006-03-18,-2.22, -4.02, -2.96, 2.27, 1.57, 7.20, repro,
2006-03-19,-4.99, -6.33, 1.55, 2.27, 1.58, 7.21, repro,
2006-03-20,-4.18, -10.28, 6.83, 2.32, 1.59, 7.33, repro,
2006-03-21,-3.20, -7.31, 6.89, 2.29, 1.57, 7.20, repro,
2006-03-22,-0.35, -6.51, -1.95, 2.50, 1.67, 7.65, repro,
2006-03-23,1.25, -8.00, -14.14, 2.39, 1.66, 7.45, repro,
2006-03-24,-0.95, -8.81, -3.05, 2.33, 1.61, 7.35, repro,
2006-03-25,-2.03, -8.71, 0.92, 2.31, 1.60, 7.22, repro,
2006-03-26,-1.49, -8.11, -6.42, 2.35, 1.62, 7.33, repro,
2006-03-27,-5.53, -10.57, -3.22, 2.39, 1.64, 7.42, repro,
2006-03-28,-3.79, -14.71, -9.72, 2.25, 1.57, 7.05, repro,